Location: Athabasca
(54.7194°N, 113.2858°W)
Time: 11:54:32
(UTC+00:00)

MOZHAYETS 4 - Visible Passes

Search period start: 30 November 2023 00:00
Search period end: 10 December 2023 00:00
Orbit: 656 x 672 km, 98.3° (Epoch: 30 November)

Date Brightness Start Highest point End Pass type
(mag) Time Alt. Az. Time Alt. Az. Time Alt. Az.
30 Nov 9.2 00:42:39 10° N 00:46:52 36° WNW 00:51:05 10° SW visible
01 Dec 9.9 01:13:55 10° N 01:17:30 23° WNW 01:21:04 10° WSW visible
02 Dec 8.1 00:07:12 10° NNE 00:11:48 68° WNW 00:16:23 10° SSW visible
02 Dec 10.4 01:45:29 10° NNW 01:48:00 15° NW 01:50:29 10° W visible
03 Dec 9.0 00:38:15 10° N 00:42:33 39° WNW 00:46:49 10° SW visible
04 Dec 9.8 01:09:28 10° N 01:13:11 24° WNW 01:16:52 10° WSW visible
05 Dec 8.0 00:02:48 10° NNE 00:07:26 74° WNW 00:12:02 10° SSW visible
05 Dec 10.3 01:40:58 10° NNW 01:43:41 16° NW 01:46:23 10° W visible
06 Dec 8.9 00:33:49 10° N 00:38:11 43° WNW 00:42:32 10° SW visible
07 Dec 9.7 01:05:00 10° N 01:08:49 26° WNW 01:12:37 10° WSW visible
07 Dec 7.9 23:58:22 10° NNE 00:03:01 81° WNW 00:07:37 10° SSW visible
08 Dec 10.3 01:36:25 10° NNW 01:39:19 17° NW 01:42:13 10° W visible
09 Dec 8.7 00:29:21 10° N 00:33:46 46° WNW 00:38:10 10° SW visible
09 Dec 10.6 02:08:40 10° NNW 02:09:42 11° NW 02:10:45 10° WNW visible
